Location: ???????
(55.4231°N, 38.5570°E)
Time: 13:28:44
(UTC+00:00)

Cosmos 2333 Rocket - Pass Details

Date: 05 August 2024
Orbit: 839 x 863 km, 70.8° (Epoch: 19 September)

Event Time Altitude Azimuth Distance (km) Brightness Sun altitude
Exits shadow 00:39:24 - 229° (SW) 2,562 4.0 -7.6°
Reaches altitude 10° 00:39:35 10° 229° (SW) 2,491 4.0 -7.6°
Maximum altitude 00:45:16 62° 310° (NW) 971 2.5 -7.0°
Drops below altitude 10° 00:51:00 10° 32° (NNE) 2,514 6.2 -6.4°
Sets 00:53:31 0° 36° (NE) 3,455 7.4 -6.1°
